FW7587 Weather Reports


time (UTC)temp
C
wind
direction
speed
KPH
gust
KPH
rain 1hr
cm
rain 24hr
cm
rain mn
cm
humidity
%
barometer
mb
20260506134552 23 73 3.2 6.4 0.00 0.00 0.00 89 1011.3
20260506133056 23 0 0.0 8.0 0.00 0.00 0.00 90 1011.1
20260506131557 22 106 1.6 9.7 0.00 0.00 0.00 90 1011.0
20260506130054 22 88 1.6 6.4 0.00 0.00 0.00 90 1011.0
20260506124558 22 0 0.0 3.2 0.00 0.00 0.00 90 1010.8
20260506123054 22 98 0.0 1.6 0.00 0.00 0.00 90 1010.7
20260506121600 22 98 0.0 1.6 0.00 0.00 0.00 90 1010.8
20260506120110 22 0 0.0 0.0 0.00 0.00 0.00 90 1010.8
20260506114606 22 0 0.0 0.0 0.00 0.00 0.00 90 1010.6
20260506113050 22 0 0.0 0.0 0.00 0.00 0.00 90 1010.6
20260506111555 22 0 0.0 1.6 0.00 0.00 0.00 90 1010.5
20260506110054 22 154 0.0 1.6 0.00 0.00 0.00 90 1010.4
20260506104552 22 0 0.0 1.6 0.00 0.00 0.00 90 1010.3
20260506103052 22 0 0.0 3.2 0.00 0.00 0.00 90 1010.3
20260506101553 22 210 0.0 3.2 0.00 0.00 0.00 90 1010.2
20260506100054 22 0 0.0 3.2 0.00 0.00 0.00 90 1010.1
20260506094553 22 159 1.6 6.4 0.00 0.00 0.00 90 1010.1
20260506093106 22 132 0.0 9.7 0.00 0.00 0.00 90 1010.1
20260506091551 22 0 3.2 8.0 0.00 0.00 0.00 89 1009.9
20260506090057 22 215 1.6 12.9 0.00 0.00 0.00 89 1009.9
20260506084551 22 162 3.2 12.9 0.00 0.00 0.00 88 1009.9
20260506083050 22 150 3.2 9.7 0.00 0.00 0.00 88 1010.0
20260506081553 23 148 3.2 14.5 0.00 0.00 0.00 88 1009.9
20260506073107 23 230 1.6 12.9 0.00 0.00 0.00 88 1010.3
20260506071548 23 134 3.2 14.5 0.00 0.00 0.00 88 1010.3
20260506061559 23 173 6.4 16.1 0.00 0.00 0.00 87 1010.6
20260506044604 23 154 1.6 11.3 0.00 0.00 0.00 86 1010.6
20260506043054 23 124 1.6 12.9 0.00 0.00 0.00 86 1010.7
20260506041606 23 0 1.6 9.7 0.00 0.00 0.00 86 1010.4
20260506040100 23 126 1.6 14.5 0.00 0.00 0.00 86 1010.2
20260506034551 23 137 1.6 8.0 0.00 0.00 0.00 87 1010.0
20260506033055 23 113 0.0 8.0 0.00 0.00 0.00 87 1010.0
20260506031551 23 0 0.0 6.4 0.00 0.00 0.00 87 1009.7
20260506030052 23 158 0.0 1.6 0.00 0.00 0.00 86 1009.5
20260506024558 23 0 0.0 0.0 0.00 0.00 0.00 85 1009.3
20260506023055 23 0 0.0 1.6 0.00 0.00 0.00 84 1009.1
20260506021551 23 0 0.0 1.6 0.00 0.00 0.00 83 1008.8
20260506020117 24 0 0.0 0.0 0.00 0.00 0.00 82 1008.5
20260506014556 25 0 0.0 1.6 0.00 0.00 0.00 81 1008.3
20260506013053 25 0 0.0 1.6 0.00 0.00 0.00 80 1007.9
20260506011553 26 0 0.0 1.6 0.00 0.00 0.00 78 1008.0
20260506010054 26 0 0.0 1.6 0.00 0.00 0.00 76 1008.0
20260506004548 27 0 0.0 1.6 0.00 0.00 0.00 74 1008.0
20260506003048 27 0 0.0 1.6 0.00 0.00 0.00 71 1008.0
20260506001605 28 149 1.6 6.4 0.00 0.00 0.00 69 1008.2
20260506000122 28 146 0.0 4.8 0.00 0.00 0.00 69 1007.9
20260505234556 28 184 1.6 9.7 0.00 0.00 0.00 68 1008.0
20260505233056 28 200 4.8 11.3 0.00 0.00 0.00 68 1007.9
20260505231556 28 221 3.2 11.3 0.00 0.00 0.00 67 1008.0
20260505230056 28 174 3.2 14.5 0.00 0.00 0.00 67 1007.8
20260505224552 29 185 3.2 12.9 0.00 0.00 0.00 67 1007.7
20260505223053 29 205 3.2 11.3 0.00 0.00 0.00 67 1007.7
20260505221601 28 95 4.8 14.5 0.00 0.00 0.00 67 1007.8
20260505220108 29 148 3.2 14.5 0.00 0.00 0.00 67 1007.8
20260505214601 29 199 3.2 16.1 0.00 0.00 0.00 66 1007.8
20260505213058 30 191 1.6 9.7 0.00 0.00 0.00 66 1008.1
20260505211626 28 143 3.2 12.9 0.00 0.00 0.00 67 1008.2
20260505210049 29 206 4.8 14.5 0.00 0.00 0.00 66 1008.5
20260505204559 30 127 4.8 11.3 0.00 0.00 0.00 65 1008.7
20260505203055 29 150 4.8 12.9 0.00 0.00 0.00 68 1008.9
20260505201551 28 171 3.2 16.1 0.00 0.00 0.00 67 1009.1
20260505200052 29 179 4.8 14.5 0.00 0.00 0.00 65 1009.4
20260505194557 28 253 4.8 12.9 0.00 0.00 0.00 69 1009.6
20260505193053 28 259 6.4 17.7 0.00 0.00 0.00 69 1009.7
20260505191549 27 111 6.4 12.9 0.00 0.00 0.00 69 1010.0
20260505190058 27 164 4.8 20.9 0.00 0.00 0.00 71 1010.0
20260505184551 27 267 4.8 12.9 0.00 0.00 0.00 72 1010.2
20260505183054 27 199 3.2 11.3 0.00 0.00 0.00 72 1010.3
20260505181629 26 218 3.2 12.9 0.00 0.00 0.00 76 1010.6
20260505180103 26 253 4.8 11.3 0.00 0.00 0.00 77 1010.6
20260505174556 25 238 4.8 11.3 0.00 0.00 0.00 78 1010.8
20260505173052 25 268 4.8 11.3 0.00 0.00 0.00 78 1010.9
20260505171601 24 194 6.4 11.3 0.00 0.00 0.00 80 1010.9
20260505170052 23 0 4.8 14.5 0.00 0.00 0.00 82 1011.0
20260505164555 23 209 1.6 9.7 0.00 0.00 0.00 83 1011.2
20260505163053 22 167 1.6 11.3 0.00 0.00 0.00 85 1011.0
20260505161552 22 139 4.8 12.9 0.00 0.00 0.00 86 1010.9
20260505153057 21 273 6.4 12.9 0.00 0.00 0.00 88 1010.8
20260505151559 21 150 3.2 14.5 0.00 0.00 0.00 89 1010.8